STARLINK-11477, 62471

Orbit data source: Space-Track

STARLINK-11477, 62471 is a payload satellite owned by SpaceX/Seattle (US) in LEO that was launched on Tue, 31 Dec 2024 UTC via an FALCON 9 launch vehicle from the Air Force Eastern Test Range (AFETR). Payload-class satellites include a variety of spacecraft equipped with specific instruments for various scientific and technological missions. These include communications satellites like Starlink; space stations such as the ISS; scientific satellites like the Hubble; Earth observation satellites from companies like Planet Labs, Umbra, and HawkEye 360; GPS; miniature CubeSats for education and research; and military/defense satellites.

Loading next visibility...
Identifier
62471, 2024-254K
Orbit
LEO
Country
Flag of USUS
Related business
Manufacturer
SpaceX/Seattle
Mission
Operational Commercial Communications
Bus & Motor
STARLINK V2MD, Unknown motor
Mass
960 kg wet, ~910 kg dry
Launch date (UTC)
2024-12-31 (1 year ago)
Launch vehicle
FALCON 9
Launch site
Air Force Eastern Test Range (AFETR)
Object type
Payload
Rocket body
Debris
Shape & HBR
Box + 2 Pan, 18.1 m
Radar Cross Section
36.964 m², Large (>1 m²)

Expand to show TLE details & history
Last TLE update: 18 hours ago

TLE from 18 hours ago
0 STARLINK-11477
1 62471U 24254K   26120.76491481  .00179510  00000-0  13705-2 0  9999
2 62471  43.0030 268.8772 0002329 268.6415  91.4186 15.70873519 77582
Epoch: 2026-04-30T18:21Z
TLE epoch observation values (Epoch: 2026-04-30T18:21:28.639Z)
Latitude
-0.00002°
Longitude
134.80102°
Altitude
356.21 km
Speed
7.697 km/s
True Right ascension
17h 55m 30s
True Declination
0° 00' 00"
Sunlit
Object was in full shadow at epoch
Visualization orbit readout
Latitude
Unknown
Longitude
Unknown
Altitude
Unknown
Speed
Unknown
Apparent Right ascension
Unknown
Apparent Declination
Unknown
Sunlit
N/A
Visualization observer readout
Local Sidereal Time
20:19:08
Azimuth
Unknown
Elevation
Unknown
Doppler factor
Unknown
Orbital elements
Apogee altitude
359.949 km
Perigee altitude
356.811 km
Semi-major axis
6,736.517 km
Eccentricity
0.00023
Inclination
43.003°
RAAN
268.8772°
Arg. of periapsis
268.6415°
True anomaly
91.44528°
Mean anomaly
91.4186°
Eccentric anomaly
91.43194°
Mean motion
3.92546 °/min
Orbital period
91.71 mins
BSTAR
0.0013705
Loading maneuver chart data...
Computing Atmospheric mass density...
Loading historical data...
Loading historical data...
Loading historical data...
Loading historical data...
Loading historical data...
Loading historical data...
Loading historical data...

Documentation

Showing up to 5 results
|